Location: Newark
(16.3678°N, 77.8722°E)
Time: 09:07:27
(UTC+00:00)

Vanguard 2 - Visible Passes

Search period start: 11 December 2019 00:00
Search period end: 21 December 2019 00:00
Orbit: 553 x 2938 km, 32.9° (Epoch: 10 December)

Date Brightness Start Highest point End Pass type
(mag) Time Alt. Az. Time Alt. Az. Time Alt. Az.
11 Dec 10.6 00:07:03 14° NW 00:22:19 49° NNE 00:35:28 10° E visible
11 Dec 10.8 15:39:19 10° S 15:39:46 12° S 15:39:46 12° S visible
11 Dec 11.4 20:21:00 25° NE 20:21:00 25° NE 20:26:52 10° ENE visible
11 Dec 10.6 22:22:25 42° NNW 22:25:23 44° N 22:41:01 10° ENE visible
12 Dec 10.5 00:23:48 10° WNW 00:41:13 56° NNE 00:54:09 10° E visible
12 Dec 10.8 15:56:05 10° SSW 15:56:34 12° SSW 15:56:34 12° SSW visible
12 Dec 11.2 20:37:46 29° NE 20:37:46 29° NE 20:45:27 10° ENE visible
12 Dec 10.6 22:39:10 38° NNW 22:44:36 45° N 22:59:59 10° ENE visible
13 Dec 10.4 00:42:11 10° WNW 00:59:56 65° NNE 01:12:43 10° ESE visible
13 Dec 11.0 16:13:16 10° SW 16:13:25 11° SSW 16:13:25 11° SSW visible
13 Dec 11.1 20:54:31 34° NE 20:54:31 34° NE 21:04:14 10° ENE visible
13 Dec 10.7 22:55:55 34° NW 23:03:44 48° NNE 23:18:59 10° E visible
14 Dec 10.3 14:26:50 10° SSE 14:28:54 14° SSE 14:28:54 14° SSE visible
14 Dec 10.9 21:11:17 38° NNE 21:11:17 38° NNE 21:23:11 10° ENE visible
14 Dec 10.6 23:12:41 30° NW 23:22:44 53° NNE 23:37:54 10° E visible
15 Dec 10.0 14:42:47 10° S 14:45:49 21° SSE 14:45:49 21° SSE visible
15 Dec 10.7 21:28:03 42° NNE 21:28:03 42° NNE 21:42:17 10° ENE visible
15 Dec 10.5 23:29:28 26° NW 23:41:34 61° NNE 23:56:38 10° E visible
16 Dec 9.8 14:59:37 10° SSW 15:02:46 27° S 15:02:46 27° S visible
16 Dec 11.8 19:43:27 14° ENE 19:43:27 14° ENE 19:45:24 10° ENE visible
16 Dec 10.6 21:44:51 46° N 21:44:52 46° N 22:01:26 10° E visible
16 Dec 10.4 23:46:16 21° NW 00:00:13 71° NNE 00:15:11 10° ESE visible
17 Dec 9.7 15:16:53 10° SW 15:19:45 29° SSW 15:19:45 29° SSW visible
17 Dec 11.6 20:00:16 19° ENE 20:00:16 19° ENE 20:04:22 10° ENE visible
17 Dec 10.5 22:01:41 48° N 22:03:54 50° NNE 22:20:34 10° E visible
18 Dec 10.3 00:03:05 17° WNW 00:18:41 83° NNE 00:33:29 10° ESE visible
18 Dec 9.9 13:30:35 10° SSE 13:33:31 14° SE 13:35:19 12° ESE visible
18 Dec 10.0 15:34:30 10° SW 15:36:44 26° SW 15:36:44 26° SW visible
18 Dec 11.4 20:17:06 24° NE 20:17:06 24° NE 20:23:31 10° ENE visible
18 Dec 10.4 22:18:31 49° NNW 22:22:48 56° NNE 22:39:34 10° E visible
19 Dec 10.3 00:19:55 13° WNW 00:36:57 83° SW 00:51:32 10° SE visible
19 Dec 9.4 13:46:30 10° S 13:50:58 23° SE 13:52:20 22° ESE visible
19 Dec 10.4 15:52:22 10° WSW 15:53:45 19° WSW 15:53:45 19° WSW visible
19 Dec 11.2 20:33:59 30° NE 20:33:59 30° NE 20:42:49 10° ENE visible
19 Dec 10.4 22:35:23 48° NNW 22:41:30 65° NNE 22:58:21 10° ESE visible
20 Dec 10.4 00:37:12 10° WNW 00:55:03 68° SW 01:09:17 10° SE visible
20 Dec 8.8 14:03:23 10° SSW 14:08:30 38° SE 14:09:22 37° ESE visible
20 Dec 10.8 16:10:31 10° WSW 16:10:47 11° WSW 16:10:47 11° WSW visible
20 Dec 10.9 20:50:52 38° NE 20:50:52 38° NE 21:02:08 10° E visible
20 Dec 10.3 22:52:17 44° NW 23:00:03 76° NNE 23:16:54 10° ESE visible
